Location: Cabeza de los Veneras
(40.2000°N, 5.2000°W)
Time: 11:58:04
(UTC+00:00)

SPOT 5 - Pass Details

Date: 18 April 2024
Orbit: 620 x 810 km, 98.1° (Epoch: 22 May)

Event Time Altitude Azimuth Distance (km) Brightness Sun altitude
Exits shadow 20:26:15 24° 111° (ESE) 1,636 4.1 -15.5°
Maximum altitude 20:28:30 33° 69° (ENE) 1,331 3.9 -15.8°
Drops below altitude 10° 20:33:09 10° 7° (N) 2,370 5.8 -16.6°
Sets 20:35:39 0° 358° (N) 3,284 6.8 -17.0°
